Tracking 19279 objects as of 14-Nov-2018
HD Live streaming from Space Station
objects crossing your sky now

TANSUO 1

Track TANSUO 1 now!
10-day predictions
TANSUO 1 is classified as:


NORAD ID: 28220
Int'l Code: 2004-012A
Perigee: 567.2 km
Apogee: 582.9 km
Inclination: 97.8 °
Period: 96.0 minutes
Semi major axis: 6946 km
RCS: 1.6951 m2 (large)
Launch date: April 18, 2004
Source: People's Republic of China (PRC)
Launch site: Xichang Space Center, China (XSC)
aabbcc
Your satellite tracking list
Your tracking list is empty




NASA's NSSDC Master Catalog

Two Line Element Set (TLE):
1 28220U 04012A   18317.47503325  .00000087  00000-0  11995-4 0  9994
2 28220  97.7649 274.7939 0011307 227.1273 132.9001 14.99663515793492
Source of the keplerian elements: AFSPC